User: anonymous   Login
Location: Augustenthal
(51.7167°N, 10.2833°E)
Time: 13:54:59
(UTC+00:00)
Language:

CZ-2C R/B - Orbit

View from above orbital plane
View from above orbital plane
View from above satellite
View from above satellite

Ground track
Ground track

The orbit data is extracted from the following two-line orbital elements,

1 37766U 11039B   21207.59239006  .00000082  00000-0  24009-4 0  9998
2 37766  98.3283  74.1092 0045211 192.5095 167.4990 14.66584907534650
Epoch (UTC): 26 July 2021 14:13:02
Eccentricity: 0.0045211
inclination: 98.3283°
perigee height: 640 km
apogee height: 704 km
right ascension of ascending node: 74.1092°
argument of perigee: 192.5095°
revolutions per day: 14.66584907
mean anomaly at epoch: 167.4990°
orbit number at epoch: 53465

The dashed part of the orbit path shows where the satellite is in the earth's shadow,  

DLR